Date,TemperatureHighF,TemperatureAvgF,TemperatureLowF,DewpointHighF,DewpointAvgF,DewpointLowF,HumidityHigh,HumidityAvg,HumidityLow,PressureMaxIn,PressureMinIn,WindSpeedMaxMPH,WindSpeedAvgMPH,GustSpeedMaxMPH,PrecipitationSumIn
2013-1-6,38,37,36,27,26,25,70,64,59,29.46,29.39,3,1,8,0.00
2013-1-7,40,34,30,27,24,21,72,67,52,29.75,29.46,4,1,8,0.00
2013-1-8,50,39,30,28,25,21,73,57,32,29.71,29.65,4,1,10,0.00
2013-1-9,52,43,39,38,31,26,79,63,51,29.69,29.51,5,2,15,0.00
2013-1-10,50,41,36,28,25,23,64,53,40,29.90,29.67,5,1,11,0.00
2013-1-11,39,37,36,38,30,25,95,77,62,29.82,29.42,4,1,8,0.26
2013-1-12,58,45,36,47,41,34,96,87,63,29.50,29.41,2,0,4,0.00
2013-1-13,56,49,44,55,48,42,97,95,91,29.45,29.28,4,1,8,0.00
2013-1-14,59,48,35,57,41,26,96,77,53,29.66,29.28,5,1,10,0.21
2013-1-15,36,34,30,33,29,27,93,83,73,29.68,29.49,1,0,4,0.35
2013-1-16,37,33,30,35,31,28,96,94,86,29.49,29.18,3,0,8,0.27
2013-1-17,38,35,32,33,27,22,86,72,59,29.46,29.30,4,1,11,0.00
2013-1-18,35,29,23,25,13,6,80,53,32,29.78,29.37,5,1,11,0.01
2013-1-19,55,42,28,26,19,10,65,42,18,29.68,29.23,8,3,15,0.00
2013-1-20,54,42,28,28,16,7,49,35,18,29.40,29.11,18,7,27,0.13
2013-1-21,38,26,18,19,12,5,68,57,43,29.43,29.15,17,4,27,0.00
2013-1-22,18,12,8,5,-5,-9,61,46,30,29.57,29.27,16,9,26,0.00
2013-1-23,8,7,6,-2,-2,-3,68,65,61,29.58,29.56,9,4,16,0.00
2013-1-26,26,23,21,19,16,14,82,76,68,29.73,29.53,5,2,11,0.00
2013-1-27,34,26,18,18,15,12,84,63,44,29.86,29.73,6,2,8,0.01
2013-1-28,48,34,26,44,30,16,95,87,62,29.78,29.35,8,2,14,0.15
2013-1-29,66,56,48,53,49,43,89,77,61,29.43,29.29,10,4,15,0.00
2013-1-30,66,57,52,59,53,48,97,88,73,29.29,28.62,14,4,28,0.79
2013-1-31,53,34,24,53,23,6,98,63,40,29.19,28.52,23,11,45,0.33
2013-2-1,25,20,12,18,7,0,87,58,44,29.66,29.15,18,9,28,0.00
2013-2-2,21,16,10,19,8,1,89,69,45,29.67,29.32,11,3,17,0.00
2013-2-3,32,24,20,24,19,12,91,81,64,29.33,29.12,15,3,26,0.01
2013-2-4,33,24,17,25,13,6,90,64,42,29.39,29.20,16,6,24,0.00
2013-2-5,35,30,26,30,27,24,94,87,78,29.26,29.18,11,2,16,0.00
2013-2-6,36,31,26,26,22,15,84,71,53,29.68,29.24,11,5,17,0.00
2013-2-7,33,28,25,24,18,14,82,65,57,29.75,29.54,8,2,12,0.00
2013-2-8,35,30,26,33,27,18,96,86,70,29.55,29.10,21,4,34,0.04
2013-2-9,36,27,21,18,13,9,74,57,41,29.71,29.26,21,8,33,0.00
2013-2-10,42,31,22,17,12,7,58,45,28,29.77,29.53,8,3,15,0.00
2013-2-11,55,42,31,46,33,16,97,77,27,29.54,29.01,16,4,25,0.24
2013-2-12,48,40,33,29,25,23,67,54,39,29.33,29.15,18,8,31,0.00
2013-2-13,38,33,29,30,25,21,94,74,57,29.30,29.02,4,1,10,0.00
2013-2-14,45,36,28,30,26,23,96,70,50,29.32,29.10,10,3,16,0.13
2013-2-15,49,39,32,33,29,23,95,68,48,29.35,29.26,10,3,16,0.02
2013-2-16,33,30,24,31,23,12,95,76,54,29.33,29.18,0,0,0,0.02
2013-2-17,26,20,16,17,9,1,86,61,46,29.50,29.17,18,9,28,0.00
2013-2-18,39,26,14,15,6,1,63,45,23,29.65,29.44,15,6,23,0.00
2013-2-19,40,34,29,36,25,14,93,70,43,29.44,29.01,16,5,29,0.18
2013-2-20,29,23,19,20,10,5,70,57,45,29.45,29.15,17,11,29,0.00
2013-2-21,33,24,18,14,11,8,72,59,43,29.65,29.41,17,7,23,0.00
2013-2-22,27,25,22,24,19,13,92,78,65,29.69,29.52,5,2,9,0.00
2013-2-23,45,35,26,40,33,24,96,92,81,29.52,29.16,4,0,8,0.01
2013-2-24,42,35,27,37,27,17,97,74,48,29.42,29.13,15,7,23,0.01
2013-2-25,47,34,26,22,19,16,72,55,35,29.53,29.42,11,3,16,0.00
2013-2-26,36,33,29,35,27,20,97,81,62,29.55,29.01,8,2,16,0.69
2013-2-27,48,39,33,39,33,30,98,81,55,29.02,28.90,17,5,24,0.11
2013-2-28,40,36,32,33,28,24,93,74,57,29.06,28.96,11,5,17,0.01
2013-3-1,41,34,29,29,25,20,87,71,52,29.21,29.05,11,6,20,0.00
2013-3-2,34,28,25,22,19,16,76,68,54,29.21,29.13,11,6,17,0.00
2013-3-3,35,28,24,20,17,15,84,65,48,29.22,29.11,19,8,25,0.00
2013-3-4,36,28,21,17,14,11,68,57,42,29.34,29.20,17,11,28,0.00
2013-3-25,31,31,29,29,29,28,94,92,89,29.02,28.96,0,0,0,0.01
2013-3-26,48,37,29,31,28,22,96,73,38,29.31,29.02,13,5,17,0.38
2013-3-27,45,37,32,32,27,23,80,67,47,29.43,29.29,15,9,23,0.00
2013-3-28,45,38,33,30,27,21,81,65,41,29.54,29.39,13,6,20,0.00
2013-3-29,53,42,34,31,26,22,71,52,30,29.56,29.45,12,4,17,0.00
2013-3-30,58,47,37,27,21,12,64,39,17,29.54,29.42,7,2,12,0.00
2013-3-31,46,43,40,43,33,14,99,73,27,29.44,29.08,11,4,17,0.25
2013-4-1,53,44,33,44,31,11,99,62,34,29.31,29.07,16,7,25,0.01
2013-4-2,42,34,28,14,12,7,55,39,25,29.49,29.30,16,8,23,0.00
2013-4-3,45,34,28,19,11,0,55,39,15,29.68,29.48,15,6,24,0.00
2013-4-4,47,36,24,14,8,-2,53,34,14,29.72,29.38,8,3,15,0.00
2013-4-5,63,47,33,28,19,10,72,38,16,29.39,29.14,12,5,24,0.00
2013-4-6,53,42,30,21,16,3,57,37,14,29.63,29.39,10,3,15,0.00
2013-4-7,68,52,36,43,31,15,66,46,32,29.56,29.27,12,6,23,0.00
2013-4-8,79,68,57,46,41,36,57,40,22,29.40,29.27,9,3,17,0.00
2013-4-9,82,73,63,52,48,42,57,43,29,29.41,29.25,11,4,16,0.00
2013-4-10,90,78,68,54,51,48,58,40,25,29.29,29.12,11,6,23,0.00
2013-4-11,84,70,53,60,54,50,88,60,35,29.26,29.09,11,3,21,0.00
2013-4-12,55,50,47,54,49,44,99,97,86,29.18,28.98,8,2,15,0.24
2013-4-13,64,52,43,44,32,25,88,50,24,29.32,29.13,13,5,18,0.00
2013-4-14,65,52,42,33,30,26,67,45,25,29.47,29.32,10,3,16,0.00
2013-4-15,62,55,50,48,43,32,79,65,43,29.62,29.46,7,3,12,0.01
2013-4-16,72,60,51,57,52,45,89,74,56,29.63,29.43,11,5,24,0.00
2013-4-17,69,61,56,61,54,45,99,78,55,29.58,29.46,10,2,15,0.08
2013-4-18,69,59,54,65,56,50,99,89,69,29.57,29.32,10,3,16,0.01
2013-4-19,71,61,48,63,56,38,98,84,68,29.33,28.94,20,8,31,0.79
2013-4-20,54,46,39,40,27,19,73,48,28,29.69,29.10,15,8,27,0.00
2013-4-21,56,43,30,24,20,15,63,42,22,29.90,29.69,5,1,9,0.00
2013-4-22,59,46,36,32,29,24,79,55,30,29.90,29.71,8,2,13,0.02
2013-4-23,59,46,37,40,36,30,83,68,47,29.76,29.45,5,1,9,0.00
2013-4-24,72,57,43,57,47,36,91,71,44,29.45,29.08,15,4,26,0.09
2013-5-22,91,77,64,69,64,59,97,68,36,29.31,29.16,9,3,17,0.18
2013-5-23,76,67,61,68,63,59,96,87,71,29.24,29.08,8,2,11,0.07
2013-5-24,61,51,42,61,44,30,99,77,59,29.50,29.10,11,6,18,0.01
2013-5-25,63,50,39,36,32,27,80,53,30,29.51,29.40,11,7,20,0.00
2013-5-26,51,48,45,34,33,31,64,56,47,29.51,29.48,7,4,9,0.00
2013-7-24,79,72,62,63,58,54,77,63,52,29.32,29.18,6,2,8,0.00
2013-7-25,78,65,53,61,55,49,89,71,43,29.42,29.31,3,0,6,0.00
2013-7-26,83,70,61,64,58,54,88,67,39,29.45,29.37,4,1,7,0.00
2013-7-27,81,70,65,70,65,55,99,84,63,29.41,29.27,7,2,17,0.38
2013-7-28,81,71,65,71,66,62,99,86,55,29.36,29.25,6,1,11,0.26
2013-7-29,78,68,59,66,56,53,99,69,44,29.52,29.36,6,2,8,0.00
2013-7-30,78,70,61,60,56,52,78,64,46,29.59,29.49,4,2,8,0.00
2013-7-31,78,71,66,67,62,57,81,74,63,29.52,29.38,5,1,12,0.00
2013-12-5,59,58,58,58,58,58,99,99,99,29.26,29.25,4,3,8,0.00
2013-12-6,60,43,32,60,43,32,99,99,98,29.52,29.21,8,2,10,0.00
2013-12-7,36,31,24,33,26,17,99,84,68,29.85,29.48,7,1,10,0.00
2013-12-8,26,22,20,25,19,16,99,88,74,29.88,29.63,0,0,0,0.00
2013-12-9,36,31,26,36,30,25,99,98,87,29.62,29.34,11,3,17,0.01
2013-12-10,32,28,24,30,24,13,99,84,60,29.50,29.30,11,3,15,0.00
2013-12-11,33,28,21,17,13,12,66,54,45,29.66,29.50,13,6,21,0.01
2013-12-12,28,22,17,19,7,-1,78,55,32,29.72,29.50,10,6,15,0.00
2013-12-13,35,29,21,16,11,6,53,48,42,29.60,29.48,14,6,19,0.00
2013-12-14,34,30,27,31,24,15,99,80,46,29.65,29.07,2,1,4,0.00
2013-12-15,36,30,27,35,26,19,99,87,67,29.23,28.96,20,5,30,1.63
2013-12-16,30,26,21,23,18,14,79,71,64,29.49,29.22,17,4,21,0.00
2013-12-17,38,27,24,31,26,20,99,94,76,29.47,29.24,6,1,8,0.00
2013-12-18,33,29,26,26,21,18,90,71,56,29.50,29.31,14,6,21,0.00
2013-12-19,55,43,28,31,23,17,68,46,28,29.49,29.36,8,4,11,0.00
2013-12-20,58,54,48,36,27,23,50,36,27,29.40,29.28,7,3,11,0.00
2013-12-21,65,59,53,58,48,39,87,66,50,29.30,29.21,8,4,14,0.00
2013-12-22,66,61,57,63,58,55,99,90,72,29.32,29.09,11,5,21,0.21
2013-12-23,59,48,31,58,44,22,99,86,67,29.56,29.26,15,5,21,0.02
2013-12-24,34,26,17,24,16,3,88,66,45,29.76,29.50,14,6,23,0.02
2013-12-25,30,20,13,13,10,6,79,64,49,29.86,29.67,7,3,11,0.00
2013-12-26,39,29,20,24,18,12,92,66,49,29.66,29.52,11,4,17,0.00
2013-12-27,46,36,27,18,16,11,62,45,24,29.69,29.60,10,5,14,0.00
2013-12-28,54,46,38,23,21,18,49,37,28,29.62,29.42,9,4,13,0.00
2013-12-29,50,43,39,43,34,17,99,80,27,29.41,28.89,10,4,14,0.66
2013-12-30,42,33,25,40,26,15,92,75,63,29.49,29.10,11,6,18,0.00
2013-12-31,34,27,23,23,16,13,77,65,51,29.61,29.40,16,6,23,0.01
2014-1-1,40,31,23,24,19,14,82,63,48,29.68,29.46,7,3,10,0.00
2014-1-2,29,26,21,27,24,21,99,93,82,29.44,28.99,2,0,4,0.00